Chicago Midway, IL

6:46 PM CST on December 14, 2019 (GMT -0600)
Chicago-Midway

Weather History for KMDW - October, 2019

Change the Weather History Date:

Sunday, October 27, 2019

  Actual Average Record
Temperature  
Mean Temperature 52 °F 50 °F  
Max Temperature 59 °F 58 °F 82 °F (1940)
Min Temperature 44 °F 42 °F 24 °F (1942)
Degree Days  
Heating Degree Days 13 15  
Month to date heating degree days 290 285  
Since 1 July heating degree days 291 367  
Cooling Degree Days 0 0  
Month to date cooling degree days 21 13  
Year to date cooling degree days 1131 1042  
Growing Degree Days 1 (Base 50)    
Moisture  
Dew Point 43 °F    
Average Humidity 75    
Maximum Humidity 96    
Minimum Humidity 39    
Precipitation  
Precipitation 0.03 in 0.11 in 1.56 in (1947)
Month to date precipitation 3.87 2.78  
Year to date precipitation 41.69 32.64  
Sea Level Pressure  
Sea Level Pressure 29.82 in    
Wind  
Wind Speed 10 mph (WSW)    
Max Wind Speed 25 mph    
Max Gust Speed 36 mph    
Visibility 9 miles    
Events Rain    
T = Trace of Precipitation, MM = Missing Value Source: NWS Daily Summary

Daily Weather History Graph

Daily Weather History Graph

Search for Another Location

Airport or City:

Astronomy

Oct. 27, 2019 Rise Set
Actual Time 7:16 AM CDT 5:52 PM CDT
Civil Twilight 6:48 AM CDT 6:20 PM CDT
Nautical Twilight 6:15 AM CDT 6:53 PM CDT
Astronomical Twilight 5:43 AM CDT 7:25 PM CDT
Moon 6:23 AM CDT (10/27) 6:02 PM CDT (10/27)
Length of Visible Light 11h 32m
Length of Day
10h 35m
Waning Crescent, 0% of the Moon is Illuminated
Oct 27
Waning Crescent
Oct 27
New
Nov 4
First Quarter
Nov 12
Full
Nov 19
Last Quarter

Hourly Weather History & Observations

Time (CDT) Temp. Windchill Dew Point Humidity Pressure Visibility Wind Dir Wind Speed Gust Speed Precip Events Conditions
12:20 AM 48.0 °F - 46.9 °F 96% 29.40 in 5.0 mi NNW 19.6 mph 29.9 mph 0.02 in Rain Light Rain
12:53 AM 46.9 °F - 45.0 °F 93% 29.43 in 2.5 mi NW 23.0 mph 32.2 mph 0.03 in Rain Light Rain
1:37 AM 46.9 °F - 44.1 °F 90% 29.47 in 3.0 mi NW 19.6 mph 29.9 mph 0.02 in Rain Light Rain
1:53 AM 46.9 °F - 45.0 °F 93% 29.50 in 6.0 mi WNW 18.4 mph 29.9 mph 0.02 in Rain Light Rain
2:53 AM 48.0 °F - 45.0 °F 89% 29.57 in 10.0 mi WNW 16.1 mph 25.3 mph 0.00 in   Overcast
3:53 AM 46.9 °F - 44.1 °F 90% 29.64 in 10.0 mi WNW 17.3 mph 32.2 mph 0.01 in   Overcast
4:53 AM 48.0 °F - 45.0 °F 89% 29.70 in 10.0 mi West 15.0 mph 27.6 mph N/A   Overcast
5:53 AM 48.0 °F - 45.0 °F 89% 29.74 in 10.0 mi West 17.3 mph 25.3 mph N/A   Overcast
6:53 AM 46.9 °F - 43.0 °F 86% 29.78 in 10.0 mi West 9.2 mph - N/A   Mostly Cloudy
7:21 AM 45.0 °F 40.1 °F 42.1 °F 90% 29.79 in 8.0 mi WSW 9.2 mph - N/A   Scattered Clouds
7:53 AM 44.1 °F 37.7 °F 42.1 °F 93% 29.83 in 8.0 mi West 12.7 mph - N/A   Scattered Clouds
8:14 AM 44.1 °F 37.7 °F 41.0 °F 89% 29.85 in 8.0 mi West 12.7 mph - N/A   Mostly Cloudy
8:53 AM 45.0 °F 38.9 °F 41.0 °F 86% 29.89 in 8.0 mi West 12.7 mph - N/A   Scattered Clouds
9:53 AM 46.9 °F - 39.0 °F 74% 29.91 in 10.0 mi West 12.7 mph - N/A   Partly Cloudy
10:53 AM 48.9 °F - 37.9 °F 66% 29.92 in 10.0 mi WNW 5.8 mph - N/A   Clear
11:53 AM 52.0 °F - 37.0 °F 57% 29.93 in 10.0 mi SW 6.9 mph - N/A   Clear
12:53 PM 55.0 °F - 37.0 °F 51% 29.92 in 10.0 mi SW 9.2 mph - N/A   Clear
1:53 PM 55.9 °F - 36.0 °F 47% 29.92 in 10.0 mi SW 10.4 mph - N/A   Clear
2:53 PM 57.9 °F - 39.9 °F 51% 29.93 in 10.0 mi WSW 11.5 mph - N/A   Clear
3:53 PM 57.9 °F - 39.9 °F 51% 29.94 in 10.0 mi SW 11.5 mph - N/A   Clear
4:53 PM 57.9 °F - 41.0 °F 53% 29.94 in 10.0 mi SW 10.4 mph - N/A   Clear
5:53 PM 57.0 °F - 43.0 °F 59% 29.95 in 10.0 mi South 6.9 mph - N/A   Clear
6:53 PM 55.0 °F - 44.1 °F 67% 29.96 in 10.0 mi SSE 6.9 mph - N/A   Clear
7:53 PM 55.0 °F - 44.1 °F 67% 29.97 in 10.0 mi South 5.8 mph - N/A   Clear
8:53 PM 54.0 °F - 45.0 °F 72% 29.96 in 10.0 mi South 8.1 mph - N/A   Clear
9:53 PM 52.0 °F - 45.0 °F 77% 29.97 in 10.0 mi South 5.8 mph - N/A   Clear
10:53 PM 52.0 °F - 46.9 °F 83% 29.97 in 10.0 mi South 6.9 mph - N/A   Clear
11:53 PM 50.0 °F - 46.0 °F 86% 29.98 in 10.0 mi SSW 5.8 mph - N/A   Clear